| time (UTC) | temp F | wind direction | speed MPH | gust MPH | rain 1hr in | rain 24hr in | rain mn in | humidity % | barometer mb |
| 20260504023049 | 60 | 78 | 5.0 | 14.0 | 0.00 | 0.00 | 0.00 | 35 | 1008.2 |
| 20260504021552 | 61 | 143 | 5.0 | 14.0 | 0.00 | 0.00 | 0.00 | 33 | 1008.0 |
| 20260504020050 | 62 | 92 | 4.0 | 15.0 | 0.00 | 0.00 | 0.00 | 32 | 1007.7 |
| 20260504014547 | 65 | 135 | 2.0 | 10.0 | 0.00 | 0.00 | 0.00 | 31 | 1007.2 |
| 20260504013049 | 66 | 178 | 2.0 | 9.0 | 0.00 | 0.00 | 0.00 | 32 | 1006.9 |
| 20260504011542 | 67 | 167 | 2.0 | 9.0 | 0.00 | 0.00 | 0.00 | 31 | 1006.8 |
| 20260504010041 | 67 | 139 | 3.0 | 9.0 | 0.00 | 0.00 | 0.00 | 31 | 1006.6 |
| 20260504004553 | 68 | 173 | 4.0 | 9.0 | 0.00 | 0.00 | 0.00 | 31 | 1006.6 |
| 20260504003044 | 68 | 123 | 3.0 | 9.0 | 0.00 | 0.00 | 0.00 | 31 | 1006.6 |
| 20260504001548 | 69 | 124 | 3.0 | 13.0 | 0.00 | 0.00 | 0.00 | 30 | 1006.7 |
| 20260504000050 | 69 | 139 | 6.0 | 14.0 | 0.00 | 0.00 | 0.00 | 29 | 1006.6 |
| 20260503234544 | 70 | 115 | 5.0 | 14.0 | 0.00 | 0.00 | 0.00 | 28 | 1006.6 |
| 20260503233040 | 71 | 130 | 5.0 | 16.0 | 0.00 | 0.00 | 0.00 | 28 | 1006.5 |
| 20260503231549 | 72 | 153 | 4.0 | 16.0 | 0.00 | 0.00 | 0.00 | 28 | 1006.3 |
| 20260503230051 | 72 | 133 | 7.0 | 16.0 | 0.00 | 0.00 | 0.00 | 25 | 1006.1 |
| 20260503224547 | 72 | 71 | 6.0 | 15.0 | 0.00 | 0.00 | 0.00 | 24 | 1006.0 |
| 20260503223045 | 73 | 124 | 7.0 | 15.0 | 0.00 | 0.00 | 0.00 | 24 | 1006.1 |
| 20260503221548 | 73 | 86 | 6.0 | 16.0 | 0.00 | 0.00 | 0.00 | 25 | 1006.1 |
| 20260503220042 | 73 | 104 | 6.0 | 15.0 | 0.00 | 0.00 | 0.00 | 25 | 1006.0 |
| 20260503214546 | 74 | 123 | 6.0 | 14.0 | 0.00 | 0.00 | 0.00 | 24 | 1006.2 |
| 20260503213045 | 74 | 106 | 6.0 | 17.0 | 0.00 | 0.00 | 0.00 | 24 | 1006.3 |
| 20260503211547 | 74 | 201 | 5.0 | 18.0 | 0.00 | 0.00 | 0.00 | 26 | 1006.6 |
| 20260503210044 | 74 | 99 | 7.0 | 15.0 | 0.00 | 0.00 | 0.00 | 24 | 1006.7 |
| 20260503204544 | 74 | 71 | 7.0 | 17.0 | 0.00 | 0.00 | 0.00 | 24 | 1006.8 |
| 20260503203042 | 73 | 99 | 7.0 | 16.0 | 0.00 | 0.00 | 0.00 | 26 | 1006.6 |
| 20260503201541 | 73 | 147 | 5.0 | 16.0 | 0.00 | 0.00 | 0.00 | 26 | 1007.1 |
| 20260503200049 | 72 | 101 | 6.0 | 16.0 | 0.00 | 0.00 | 0.00 | 27 | 1007.3 |
| 20260503194549 | 72 | 71 | 4.0 | 12.0 | 0.00 | 0.00 | 0.00 | 29 | 1007.6 |
| 20260503193053 | 72 | 109 | 5.0 | 12.0 | 0.00 | 0.00 | 0.00 | 28 | 1007.9 |
| 20260503191543 | 72 | 101 | 5.0 | 17.0 | 0.00 | 0.00 | 0.00 | 28 | 1008.2 |
| 20260503190049 | 71 | 95 | 5.0 | 16.0 | 0.00 | 0.00 | 0.00 | 28 | 1008.3 |
| 20260503184554 | 71 | 116 | 6.0 | 13.0 | 0.00 | 0.00 | 0.00 | 28 | 1008.5 |
| 20260503183042 | 71 | 124 | 5.0 | 16.0 | 0.00 | 0.00 | 0.00 | 29 | 1008.7 |
| 20260503181548 | 70 | 117 | 6.0 | 13.0 | 0.00 | 0.00 | 0.00 | 29 | 1008.9 |
| 20260503180047 | 69 | 114 | 4.0 | 11.0 | 0.00 | 0.00 | 0.00 | 32 | 1008.9 |
| 20260503174601 | 68 | 122 | 5.0 | 13.0 | 0.00 | 0.00 | 0.00 | 33 | 1009.3 |
| 20260503173046 | 66 | 90 | 2.0 | 8.0 | 0.00 | 0.00 | 0.00 | 37 | 1009.6 |
| 20260503171558 | 65 | 98 | 2.0 | 5.0 | 0.00 | 0.00 | 0.00 | 37 | 1009.7 |
| 20260503081553 | 44 | 51 | 2.0 | 7.0 | 0.00 | 0.00 | 0.00 | 72 | 1012.0 |
| 20260503071547 | 45 | 46 | 1.0 | 6.0 | 0.00 | 0.00 | 0.00 | 69 | 1012.5 |
| 20260503054546 | 48 | 0 | 0.0 | 1.0 | 0.00 | 0.00 | 0.00 | 62 | 1012.7 |
| 20260503053043 | 49 | 0 | 0.0 | 1.0 | 0.00 | 0.00 | 0.00 | 62 | 1013.0 |
| 20260503051542 | 50 | 256 | 0.0 | 2.0 | 0.00 | 0.00 | 0.00 | 60 | 1012.9 |
| 20260503050049 | 50 | 274 | 0.0 | 3.0 | 0.00 | 0.00 | 0.00 | 59 | 1013.1 |
| 20260503044547 | 51 | 0 | 0.0 | 2.0 | 0.00 | 0.00 | 0.00 | 57 | 1013.1 |
| 20260503043045 | 52 | 0 | 0.0 | 3.0 | 0.00 | 0.00 | 0.00 | 55 | 1013.2 |
| 20260503041547 | 54 | 316 | 0.0 | 4.0 | 0.00 | 0.00 | 0.00 | 52 | 1013.2 |
| 20260503040043 | 56 | 333 | 0.0 | 4.0 | 0.00 | 0.00 | 0.00 | 50 | 1013.3 |
| 20260503034558 | 57 | 0 | 0.0 | 0.0 | 0.00 | 0.00 | 0.00 | 47 | 1013.4 |
| 20260503033054 | 59 | 0 | 0.0 | 0.0 | 0.00 | 0.00 | 0.00 | 46 | 1013.4 |
| 20260503031552 | 60 | 0 | 0.0 | 1.0 | 0.00 | 0.00 | 0.00 | 44 | 1013.4 |
| 20260503030046 | 60 | 0 | 0.0 | 1.0 | 0.00 | 0.00 | 0.00 | 42 | 1013.2 |
| 20260503024549 | 61 | 0 | 0.0 | 2.0 | 0.00 | 0.00 | 0.00 | 41 | 1013.2 |